Regional Weather Roundup
Issued by NWS

Home | Current Version | Previous Version | Graphics & Text | Print | Product List | Glossary On
Versions: 1 2 3 4 5 6 7 8 9 10 11 12 13 14 15 16 17 18 19 20 21 22 23 24 25 26 27 28 29 30 31 32 33 34 35 36 37 38 39 40 41 42 43 44 45 46 47 48 49 50
862
ASUS43 KIND 250459
RWRIN

WEATHER ROUNDUP FOR INDIANA
NATIONAL WEATHER SERVICE INDIANAPOLIS IN
100 AM EDT SUN SEP 25 2016

NOTE: "FAIR" INDICATES FEW OR NO CLOUDS BELOW 12,000 FEET WITH NO
SIGNIFICANT WEATHER AND/OR OBSTRUCTIONS TO VISIBILITY.

* - STATION DOES NOT REPORT WEATHER SUCH AS PRECIPITATION OR FOG.

+ - STATION NOT QUALITY CONTROLLED BY THE NATIONAL WEATHER SERVICE.
    USE DATA WITH CAUTION...ESPECIALLY DEWPOINT AND RELATIVE
    HUMIDITY OBSERVATIONS.

INZ001>003-010>013-019-020-250600-
NORTHWEST INDIANA

CITY           SKY/WX    TMP DP  RH WIND       PRES   REMARKS

$$

LMZ046-743>745-250600-
SOUTHERN LAKE MICHIGAN

STATION/POSITION TIME  TEMP    WIND        PRES    WAVE
                       AIR SEA DIR/SP/G            HT
                 (UTC) (F)     (DEG/KT/KT) (MB)    (FT)
BURNS HARBOR     0412   70     120/  8/ 13 1021.0R
MICHIGAN CITY    0400   67      90/  5/  6   N/A
5NW MICH CITY    0400   67 70  100/  8/  8   N/A     1

$$

INZ004-005-014>016-021>024-250600-
NORTH CENTRAL INDIANA

CITY           SKY/WX    TMP DP  RH WIND       PRES   REMARKS
GOSHEN         CLEAR     61  55  81 E8        30.18S
SOUTH BEND     CLEAR     64  58  80 SE9       30.17S

$$

INZ006>009-017-018-025>027-250600-
NORTHEAST INDIANA

CITY           SKY/WX    TMP DP  RH WIND       PRES   REMARKS
ANGOLA *+        N/A     57  46  67 E5        30.20S
FORT WAYNE     CLEAR     61  54  77 E7        30.18F
KENDALLVILLE + CLEAR     59  54  83 E6        30.20R

$$

INZ028-029-035-036-043>045-051>053-250600-
WEST CENTRAL INDIANA

CITY           SKY/WX    TMP DP  RH WIND       PRES   REMARKS
CRAWFORDSVL +  CLEAR     65  65 100 E3        30.14R
GREENCASTLE +  CLEAR     68  68 100 CALM      30.14R
LAFAYETTE      CLEAR     68  64  87 E8        30.13R
TERRE HAUTE    CLEAR     71  66  84 CALM      30.11R

$$

INZ030>032-037>040-046>048-054>057-064-065-250600-
CENTRAL INDIANA

CITY           SKY/WX    TMP DP  RH WIND       PRES   REMARKS
INDIANAPOLIS   CLEAR     72  65  78 E8        30.12S
-EAGLE CREEK   CLEAR     70  64  81 E5        30.13S
MT COMFORT *+  CLEAR     64  63  94 CALM      30.14S
SHELBYVILLE    CLEAR     68  63  84 E5        30.12S

$$

INZ033-034-041-042-049-050-058-059-250600-
EAST CENTRAL INDIANA

CITY           SKY/WX    TMP DP  RH WIND       PRES   REMARKS
MUNCIE         CLEAR     64  59  83 E7        30.16S

$$

INZ060-061-067>069-081>083-085>088-250600-
SOUTHWEST INDIANA

CITY           SKY/WX    TMP DP  RH WIND       PRES   REMARKS
EVANSVILLE     CLEAR     72  66  81 CALM      30.08R
HUNTINGBURG *+   N/A     72  64  78 E3        30.09S

$$

INZ062-063-066-070>080-084-089>092-250600-
SOUTH CENTRAL AND SOUTHEAST INDIANA

CITY           SKY/WX    TMP DP  RH WIND       PRES   REMARKS
BLOOMINGTON    CLEAR     71  66  84 CALM      30.12S
MADISON *+     CLEAR     68  64  88 NE3       30.13F
SEYMOUR +      CLEAR     68  64  88 CALM      30.11S

$$





USA.gov is the U.S. government's official web portal to all federal, state and local government web resources and services.